Location: Ar Ranvel
(48.3000°N, 4.8833°W)
Time: 14:10:46
(UTC+00:00)

Lacrosse 5 - Pass Details

Date: 16 June 2021
Orbit: 715 x 724 km, 57.0° (Epoch: 28 July)

Event Time Altitude Azimuth Distance (km) Brightness Sun altitude
Rises 22:47:18 0° 292° (WNW) 3,126 5.9 -15.3°
Reaches altitude 10° 22:51:19 10° 261° (W) 2,202 4.5 -15.6°
Maximum altitude 22:53:01 12° 241° (WSW) 2,089 4.2 -15.7°
Drops below altitude 10° 22:54:43 10° 222° (SW) 2,199 4.1 -15.8°
Enters shadow 22:55:23 - 215° (SW) 2,298 4.1 -15.8°
